Year,Month,Day,Hour,Minute,Value (Times are PST for temperature in C)
2013,04,15,00,00,4.50
2013,04,15,00,01,4.60
2013,04,15,00,02,4.70
2013,04,15,00,03,4.70
2013,04,15,00,04,4.80
2013,04,15,00,05,4.80
2013,04,15,00,06,4.80
2013,04,15,00,07,4.80
2013,04,15,00,08,4.80
2013,04,15,00,09,4.80
2013,04,15,00,10,4.90
2013,04,15,00,11,4.90
2013,04,15,00,12,4.90
2013,04,15,00,13,5.00
2013,04,15,00,14,5.00
2013,04,15,00,15,5.00
2013,04,15,00,16,5.00
2013,04,15,00,17,5.00
2013,04,15,00,18,5.00
2013,04,15,00,19,5.00
2013,04,15,00,20,5.00
2013,04,15,00,21,5.00
2013,04,15,00,22,5.10
2013,04,15,00,23,5.10
2013,04,15,00,24,5.00
2013,04,15,00,25,5.00
2013,04,15,00,26,5.00
2013,04,15,00,27,5.00
2013,04,15,00,28,5.10
2013,04,15,00,29,5.10
2013,04,15,00,30,5.10
2013,04,15,00,31,5.10
2013,04,15,00,32,5.10
2013,04,15,00,33,5.00
2013,04,15,00,34,5.00
2013,04,15,00,35,5.00
2013,04,15,00,36,4.90
2013,04,15,00,37,4.90
2013,04,15,00,38,4.90
2013,04,15,00,39,4.90
2013,04,15,00,40,4.90
2013,04,15,00,41,4.90
2013,04,15,00,42,4.80
2013,04,15,00,43,4.80
2013,04,15,00,44,4.80
2013,04,15,00,45,4.80
2013,04,15,00,46,4.80
2013,04,15,00,47,4.80
2013,04,15,00,48,4.80
2013,04,15,00,49,4.80
2013,04,15,00,50,4.80
2013,04,15,00,51,4.80
2013,04,15,00,52,4.80
2013,04,15,00,53,4.80
2013,04,15,00,54,4.80
2013,04,15,00,55,4.70
2013,04,15,00,56,4.70
2013,04,15,00,57,4.70
2013,04,15,00,58,4.70
2013,04,15,00,59,4.70
2013,04,15,01,00,4.70
2013,04,15,01,01,4.70
2013,04,15,01,02,4.70
2013,04,15,01,03,4.80
2013,04,15,01,04,4.80
2013,04,15,01,05,4.80
2013,04,15,01,06,4.80
2013,04,15,01,07,4.90
2013,04,15,01,08,4.90
2013,04,15,01,09,4.90
2013,04,15,01,10,4.90
2013,04,15,01,11,4.90
2013,04,15,01,12,4.90
2013,04,15,01,13,4.90
2013,04,15,01,14,4.90
2013,04,15,01,15,4.90
2013,04,15,01,16,4.80
2013,04,15,01,17,4.80
2013,04,15,01,18,4.80
2013,04,15,01,19,4.80
2013,04,15,01,20,4.80
2013,04,15,01,21,4.80
2013,04,15,01,22,4.70
2013,04,15,01,23,4.70
2013,04,15,01,24,4.70
2013,04,15,01,25,4.70
2013,04,15,01,26,4.70
2013,04,15,01,27,4.80
2013,04,15,01,28,4.80
2013,04,15,01,29,4.80
2013,04,15,01,30,4.80
2013,04,15,01,31,4.80
2013,04,15,01,32,4.80
2013,04,15,01,33,4.80
2013,04,15,01,34,4.80
2013,04,15,01,35,4.90
2013,04,15,01,36,4.90
2013,04,15,01,37,4.90
2013,04,15,01,38,4.90
2013,04,15,01,39,4.90
2013,04,15,01,40,4.90
2013,04,15,01,41,4.90
2013,04,15,01,42,5.00
2013,04,15,01,43,5.00
2013,04,15,01,44,5.00
2013,04,15,01,45,5.00
2013,04,15,01,46,4.90
2013,04,15,01,47,4.90
2013,04,15,01,48,4.90
2013,04,15,01,49,4.80
2013,04,15,01,50,4.80
2013,04,15,01,51,4.80
2013,04,15,01,52,4.80
2013,04,15,01,53,4.80
2013,04,15,01,54,4.80
2013,04,15,01,55,4.80
2013,04,15,01,56,4.70
2013,04,15,01,57,4.70
2013,04,15,01,58,4.70
2013,04,15,01,59,4.70
2013,04,15,02,00,4.70
2013,04,15,02,01,4.70
2013,04,15,02,02,4.70
2013,04,15,02,03,4.70
2013,04,15,02,04,4.60
2013,04,15,02,05,4.60
2013,04,15,02,06,4.60
2013,04,15,02,07,4.60
2013,04,15,02,08,4.60
2013,04,15,02,09,4.60
2013,04,15,02,10,4.60
2013,04,15,02,11,4.60
2013,04,15,02,12,4.60
2013,04,15,02,13,4.50
2013,04,15,02,14,4.50
2013,04,15,02,15,4.40
2013,04,15,02,16,4.40
2013,04,15,02,17,4.40
2013,04,15,02,18,4.40
2013,04,15,02,19,4.40
2013,04,15,02,20,4.40
2013,04,15,02,21,4.50
2013,04,15,02,22,4.60
2013,04,15,02,23,4.60
2013,04,15,02,24,4.60
2013,04,15,02,25,4.60
2013,04,15,02,26,4.60
2013,04,15,02,27,4.60
2013,04,15,02,28,4.60
2013,04,15,02,29,4.60
2013,04,15,02,30,4.60
2013,04,15,02,31,4.60
2013,04,15,02,32,4.60
2013,04,15,02,33,4.50
2013,04,15,02,34,4.50
2013,04,15,02,35,4.50
2013,04,15,02,36,4.50
2013,04,15,02,37,4.50
2013,04,15,02,38,4.50
2013,04,15,02,39,4.50
2013,04,15,02,40,4.60
2013,04,15,02,41,4.60
2013,04,15,02,42,4.70
2013,04,15,02,43,4.70
2013,04,15,02,44,4.70
2013,04,15,02,45,4.80
2013,04,15,02,46,4.80
2013,04,15,02,47,4.80
2013,04,15,02,48,4.80
2013,04,15,02,49,4.80
2013,04,15,02,50,4.80
2013,04,15,02,51,4.80
2013,04,15,02,52,4.80
2013,04,15,02,53,4.80
2013,04,15,02,54,4.70
2013,04,15,02,55,4.70
2013,04,15,02,56,4.60
2013,04,15,02,57,4.60
2013,04,15,02,58,4.60
2013,04,15,02,59,4.60
2013,04,15,03,00,4.50
2013,04,15,03,01,4.50
2013,04,15,03,02,4.40
2013,04,15,03,03,4.40
2013,04,15,03,04,4.30
2013,04,15,03,05,4.30
2013,04,15,03,06,4.40
2013,04,15,03,07,4.50
2013,04,15,03,08,4.50
2013,04,15,03,09,4.60
2013,04,15,03,10,4.60
2013,04,15,03,11,4.60
2013,04,15,03,12,4.70
2013,04,15,03,13,4.80
2013,04,15,03,14,4.80
2013,04,15,03,15,4.90
2013,04,15,03,16,4.90
2013,04,15,03,17,4.90
2013,04,15,03,18,4.90
2013,04,15,03,19,4.90
2013,04,15,03,20,5.00
2013,04,15,03,21,5.00
2013,04,15,03,22,5.10
2013,04,15,03,23,5.00
2013,04,15,03,24,5.00
2013,04,15,03,25,4.90
2013,04,15,03,26,4.90
2013,04,15,03,27,4.90
2013,04,15,03,28,4.80
2013,04,15,03,29,4.80
2013,04,15,03,30,4.80
2013,04,15,03,31,4.90
2013,04,15,03,32,4.90
2013,04,15,03,33,5.00
2013,04,15,03,34,5.10
2013,04,15,03,35,5.10
2013,04,15,03,36,5.20
2013,04,15,03,37,5.10
2013,04,15,03,38,5.10
2013,04,15,03,39,5.10
2013,04,15,03,40,5.10
2013,04,15,03,41,5.00
2013,04,15,03,42,5.00
2013,04,15,03,43,4.90
2013,04,15,03,44,4.90
2013,04,15,03,45,4.80
2013,04,15,03,46,4.80
2013,04,15,03,47,4.80
2013,04,15,03,48,4.70
2013,04,15,03,49,4.70
2013,04,15,03,50,4.70
2013,04,15,03,51,4.70
2013,04,15,03,52,4.60
2013,04,15,03,53,4.60
2013,04,15,03,54,4.60
2013,04,15,03,55,4.60
2013,04,15,03,56,4.50
2013,04,15,03,57,4.50
2013,04,15,03,58,4.50
2013,04,15,03,59,4.50
2013,04,15,04,00,4.40
2013,04,15,04,01,4.40
2013,04,15,04,02,4.40
2013,04,15,04,03,4.40
2013,04,15,04,04,4.40
2013,04,15,04,05,4.40
2013,04,15,04,06,4.40
2013,04,15,04,07,4.40
2013,04,15,04,08,4.40
2013,04,15,04,09,4.40
2013,04,15,04,10,4.40
2013,04,15,04,11,4.40
2013,04,15,04,12,4.40
2013,04,15,04,13,4.40
2013,04,15,04,14,4.40
2013,04,15,04,15,4.40
2013,04,15,04,16,4.40
2013,04,15,04,17,4.40
2013,04,15,04,18,4.40
2013,04,15,04,19,4.40
2013,04,15,04,20,4.50
2013,04,15,04,21,4.50
2013,04,15,04,22,4.60
2013,04,15,04,23,4.70
2013,04,15,04,24,4.70
2013,04,15,04,25,4.80
2013,04,15,04,26,4.90
2013,04,15,04,27,5.00
2013,04,15,04,28,5.10
2013,04,15,04,29,5.20
2013,04,15,04,30,5.20
2013,04,15,04,31,5.20
2013,04,15,04,32,5.20
2013,04,15,04,33,5.20
2013,04,15,04,34,5.20
2013,04,15,04,35,5.20
2013,04,15,04,36,5.20
2013,04,15,04,37,5.20
2013,04,15,04,38,5.10
2013,04,15,04,39,5.10
2013,04,15,04,40,5.10
2013,04,15,04,41,5.10
2013,04,15,04,42,5.00
2013,04,15,04,43,5.00
2013,04,15,04,44,4.90
2013,04,15,04,45,4.90
2013,04,15,04,46,5.00
2013,04,15,04,47,5.00
2013,04,15,04,48,5.00
2013,04,15,04,49,5.00
2013,04,15,04,50,5.10
2013,04,15,04,51,5.10
2013,04,15,04,52,5.10
2013,04,15,04,53,5.10
2013,04,15,04,54,5.20
2013,04,15,04,55,5.20
2013,04,15,04,56,5.30
2013,04,15,04,57,5.40
2013,04,15,04,58,5.40
2013,04,15,04,59,5.40
2013,04,15,05,00,5.40
2013,04,15,05,01,5.40
2013,04,15,05,02,5.40
2013,04,15,05,03,5.40
2013,04,15,05,04,5.40
2013,04,15,05,05,5.30
2013,04,15,05,06,5.30
2013,04,15,05,07,5.30
2013,04,15,05,08,5.30
2013,04,15,05,09,5.20
2013,04,15,05,10,5.20
2013,04,15,05,11,5.20
2013,04,15,05,12,5.10
2013,04,15,05,13,5.10
2013,04,15,05,14,5.10
2013,04,15,05,15,5.10
2013,04,15,05,16,5.10
2013,04,15,05,17,5.10
2013,04,15,05,18,5.10
2013,04,15,05,19,5.10
2013,04,15,05,20,5.20
2013,04,15,05,21,5.20
2013,04,15,05,22,5.20
2013,04,15,05,23,5.30
2013,04,15,05,24,5.30
2013,04,15,05,25,5.30
2013,04,15,05,26,5.40
2013,04,15,05,27,5.40
2013,04,15,05,28,5.40
2013,04,15,05,29,5.40
2013,04,15,05,30,5.40
2013,04,15,05,31,5.40
2013,04,15,05,32,5.40
2013,04,15,05,33,5.30
2013,04,15,05,34,5.30
2013,04,15,05,35,5.30
2013,04,15,05,36,5.30
2013,04,15,05,37,5.30
2013,04,15,05,38,5.30
2013,04,15,05,39,5.30
2013,04,15,05,40,5.30
2013,04,15,05,41,5.30
2013,04,15,05,42,5.30
2013,04,15,05,43,5.30
2013,04,15,05,44,5.30
2013,04,15,05,45,5.30
2013,04,15,05,46,5.30
2013,04,15,05,47,5.30
2013,04,15,05,48,5.30
2013,04,15,05,49,5.30
2013,04,15,05,50,5.30
2013,04,15,05,51,5.30
2013,04,15,05,52,5.30
2013,04,15,05,53,5.30
2013,04,15,05,54,5.30
2013,04,15,05,55,5.20
2013,04,15,05,56,5.20
2013,04,15,05,57,5.30
2013,04,15,05,58,5.30
2013,04,15,05,59,5.30
2013,04,15,06,00,5.30
2013,04,15,06,01,5.30
2013,04,15,06,02,5.30
2013,04,15,06,03,5.30
2013,04,15,06,04,5.30
2013,04,15,06,05,5.30
2013,04,15,06,06,5.30
2013,04,15,06,07,5.30
2013,04,15,06,08,5.30
2013,04,15,06,09,5.30
2013,04,15,06,10,5.30
2013,04,15,06,11,5.30
2013,04,15,06,12,5.30
2013,04,15,06,13,5.30
2013,04,15,06,14,5.30
2013,04,15,06,15,5.30
2013,04,15,06,16,5.30
2013,04,15,06,17,5.40
2013,04,15,06,18,5.40
2013,04,15,06,19,5.40
2013,04,15,06,20,5.40
2013,04,15,06,21,5.40
2013,04,15,06,22,5.40
2013,04,15,06,23,5.40
2013,04,15,06,24,5.40
2013,04,15,06,25,5.40
2013,04,15,06,26,5.40
2013,04,15,06,27,5.40
2013,04,15,06,28,5.40
2013,04,15,06,29,5.40
2013,04,15,06,30,5.40
2013,04,15,06,31,5.30
2013,04,15,06,32,5.40
2013,04,15,06,33,5.40
2013,04,15,06,34,5.40
2013,04,15,06,35,5.40
2013,04,15,06,36,5.40
2013,04,15,06,37,5.40
2013,04,15,06,38,5.50
2013,04,15,06,39,5.50
2013,04,15,06,40,5.50
2013,04,15,06,41,5.50
2013,04,15,06,42,5.50
2013,04,15,06,43,5.40
2013,04,15,06,44,5.50
2013,04,15,06,45,5.50
2013,04,15,06,46,5.50
2013,04,15,06,47,5.40
2013,04,15,06,48,5.40
2013,04,15,06,49,5.40
2013,04,15,06,50,5.40
2013,04,15,06,51,5.40
2013,04,15,06,52,5.40
2013,04,15,06,53,5.30
2013,04,15,06,54,5.40
2013,04,15,06,55,5.40
2013,04,15,06,56,5.40
2013,04,15,06,57,5.40
2013,04,15,06,58,5.40
2013,04,15,06,59,5.40
2013,04,15,07,00,5.40
2013,04,15,07,01,5.30
2013,04,15,07,02,5.30
2013,04,15,07,03,5.30
2013,04,15,07,04,5.30
2013,04,15,07,05,5.20
2013,04,15,07,06,5.20
2013,04,15,07,07,5.20
2013,04,15,07,08,5.20
2013,04,15,07,09,5.20
2013,04,15,07,10,5.20
2013,04,15,07,11,5.20
2013,04,15,07,12,5.20
2013,04,15,07,13,5.30
2013,04,15,07,14,5.30
2013,04,15,07,15,5.30
2013,04,15,07,16,5.30
2013,04,15,07,17,5.20
2013,04,15,07,18,5.20
2013,04,15,07,19,5.20
2013,04,15,07,20,5.20
2013,04,15,07,21,5.20
2013,04,15,07,22,5.30
2013,04,15,07,23,5.30
2013,04,15,07,24,5.20
2013,04,15,07,25,5.20
2013,04,15,07,26,5.20
2013,04,15,07,27,5.20
2013,04,15,07,28,5.10
2013,04,15,07,29,5.10
2013,04,15,07,30,5.10
2013,04,15,07,31,5.10
2013,04,15,07,32,5.00
2013,04,15,07,33,5.00
2013,04,15,07,34,4.90
2013,04,15,07,35,4.90
2013,04,15,07,36,4.90
2013,04,15,07,37,4.90
2013,04,15,07,38,4.90
2013,04,15,07,39,4.80
2013,04,15,07,40,4.80
2013,04,15,07,41,4.80
2013,04,15,07,42,4.80
2013,04,15,07,43,4.80
2013,04,15,07,44,4.80
2013,04,15,07,45,4.90
2013,04,15,07,46,4.90
2013,04,15,07,47,4.90
2013,04,15,07,48,4.90
2013,04,15,07,49,5.00
2013,04,15,07,50,5.00
2013,04,15,07,51,5.00
2013,04,15,07,52,5.10
2013,04,15,07,53,5.10
2013,04,15,07,54,5.10
2013,04,15,07,55,5.10
2013,04,15,07,56,5.10
2013,04,15,07,57,5.20
2013,04,15,07,58,5.20
2013,04,15,07,59,5.20
2013,04,15,08,00,5.30
2013,04,15,08,01,5.30
2013,04,15,08,02,5.30
2013,04,15,08,03,5.30
2013,04,15,08,04,5.40
2013,04,15,08,05,5.40
2013,04,15,08,06,5.40
2013,04,15,08,07,5.50
2013,04,15,08,08,5.50
2013,04,15,08,09,5.60
2013,04,15,08,10,5.60
2013,04,15,08,11,5.70
2013,04,15,08,12,5.80
2013,04,15,08,13,5.80
2013,04,15,08,14,5.90
2013,04,15,08,15,6.00
2013,04,15,08,16,6.10
2013,04,15,08,17,6.20
2013,04,15,08,18,6.20
2013,04,15,08,19,6.30
2013,04,15,08,20,6.30
2013,04,15,08,21,6.40
2013,04,15,08,22,6.40
2013,04,15,08,23,6.50
2013,04,15,08,24,6.50
2013,04,15,08,25,6.60
2013,04,15,08,26,6.80
2013,04,15,08,27,6.80
2013,04,15,08,28,6.90
2013,04,15,08,29,7.00
2013,04,15,08,30,7.00
2013,04,15,08,31,7.10
2013,04,15,08,32,7.20
2013,04,15,08,33,7.20
2013,04,15,08,34,7.20
2013,04,15,08,35,7.30
2013,04,15,08,36,7.30
2013,04,15,08,37,7.40
2013,04,15,08,38,7.50
2013,04,15,08,39,7.60
2013,04,15,08,40,7.70
2013,04,15,08,41,7.70
2013,04,15,08,42,7.70
2013,04,15,08,43,7.80
2013,04,15,08,44,7.80
2013,04,15,08,45,7.90
2013,04,15,08,46,7.90
2013,04,15,08,47,7.90
2013,04,15,08,48,8.00
2013,04,15,08,49,8.00
2013,04,15,08,50,8.00
2013,04,15,08,51,8.00
2013,04,15,08,52,8.00
2013,04,15,08,53,8.10
2013,04,15,08,54,8.10
2013,04,15,08,55,8.10
2013,04,15,08,56,8.20
2013,04,15,08,57,8.20
2013,04,15,08,58,8.20
2013,04,15,08,59,8.20
2013,04,15,09,00,8.20
2013,04,15,09,01,8.30
2013,04,15,09,02,8.30
2013,04,15,09,03,8.30
2013,04,15,09,04,8.30
2013,04,15,09,05,8.30
2013,04,15,09,06,8.30
2013,04,15,09,07,8.30
2013,04,15,09,08,8.30
2013,04,15,09,09,8.30
2013,04,15,09,10,8.30
2013,04,15,09,11,8.30
2013,04,15,09,12,8.30
2013,04,15,09,13,8.30
2013,04,15,09,14,8.30
2013,04,15,09,15,8.40
2013,04,15,09,16,8.30
2013,04,15,09,17,8.40
2013,04,15,09,18,8.40
2013,04,15,09,19,8.40
2013,04,15,09,20,8.40
2013,04,15,09,21,8.40
2013,04,15,09,22,8.40
2013,04,15,09,23,8.40
2013,04,15,09,24,8.40
2013,04,15,09,25,8.40
2013,04,15,09,26,8.40
2013,04,15,09,27,8.40
2013,04,15,09,28,8.50
2013,04,15,09,29,8.50
2013,04,15,09,30,8.50
2013,04,15,09,31,8.60
2013,04,15,09,32,8.70
2013,04,15,09,33,8.70
2013,04,15,09,34,8.80
2013,04,15,09,35,8.80
2013,04,15,09,36,8.80
2013,04,15,09,37,8.80
2013,04,15,09,38,8.80
2013,04,15,09,39,8.80
2013,04,15,09,40,8.90
2013,04,15,09,41,8.90
2013,04,15,09,42,8.90
2013,04,15,09,43,8.80
2013,04,15,09,44,8.80
2013,04,15,09,45,8.70
2013,04,15,09,46,8.70
2013,04,15,09,47,8.70
2013,04,15,09,48,8.60
2013,04,15,09,49,8.60
2013,04,15,09,50,8.60
2013,04,15,09,51,8.60
2013,04,15,09,52,8.70
2013,04,15,09,53,8.70
2013,04,15,09,54,8.70
2013,04,15,09,55,8.70
2013,04,15,09,56,8.80
2013,04,15,09,57,8.80
2013,04,15,09,58,8.90
2013,04,15,09,59,8.90
2013,04,15,10,00,8.80
2013,04,15,10,01,8.80
2013,04,15,10,02,8.80
2013,04,15,10,03,8.80
2013,04,15,10,04,8.80
2013,04,15,10,05,8.80
2013,04,15,10,06,8.80
2013,04,15,10,07,8.80
2013,04,15,10,08,8.80
2013,04,15,10,09,8.90
2013,04,15,10,10,8.90
2013,04,15,10,11,8.90
2013,04,15,10,12,8.90
2013,04,15,10,13,8.80
2013,04,15,10,14,8.80
2013,04,15,10,15,8.80
2013,04,15,10,16,8.80
2013,04,15,10,17,8.80
2013,04,15,10,18,8.80
2013,04,15,10,19,8.80
2013,04,15,10,20,8.80
2013,04,15,10,21,8.80
2013,04,15,10,22,8.90
2013,04,15,10,23,8.90
2013,04,15,10,24,8.90
2013,04,15,10,25,9.00
2013,04,15,10,26,9.10
2013,04,15,10,27,9.10
2013,04,15,10,28,9.20
2013,04,15,10,29,9.20
2013,04,15,10,30,9.20
2013,04,15,10,31,9.20
2013,04,15,10,32,9.20
2013,04,15,10,33,9.20
2013,04,15,10,34,9.30
2013,04,15,10,35,9.30
2013,04,15,10,36,9.30
2013,04,15,10,37,9.30
2013,04,15,10,38,9.30
2013,04,15,10,39,9.30
2013,04,15,10,40,9.30
2013,04,15,10,41,9.30
2013,04,15,10,42,9.30
2013,04,15,10,43,9.30
2013,04,15,10,44,9.30
2013,04,15,10,45,9.30
2013,04,15,10,46,9.40
2013,04,15,10,47,9.40
2013,04,15,10,48,9.50
2013,04,15,10,49,9.50
2013,04,15,10,50,9.50
2013,04,15,10,51,9.50
2013,04,15,10,52,9.50
2013,04,15,10,53,9.50
2013,04,15,10,54,9.50
2013,04,15,10,55,9.40
2013,04,15,10,56,9.40
2013,04,15,10,57,9.50
2013,04,15,10,58,9.60
2013,04,15,10,59,9.60
2013,04,15,11,00,9.60
2013,04,15,11,01,9.70
2013,04,15,11,02,9.70
2013,04,15,11,03,9.70
2013,04,15,11,04,9.80
2013,04,15,11,05,9.70
2013,04,15,11,06,9.70
2013,04,15,11,07,9.70
2013,04,15,11,08,9.70
2013,04,15,11,09,9.70
2013,04,15,11,10,9.70
2013,04,15,11,11,9.60
2013,04,15,11,12,9.60
2013,04,15,11,13,9.70
2013,04,15,11,14,9.70
2013,04,15,11,15,9.70
2013,04,15,11,16,9.70
2013,04,15,11,17,9.60
2013,04,15,11,18,9.60
2013,04,15,11,19,9.60
2013,04,15,11,20,9.60
2013,04,15,11,21,9.60
2013,04,15,11,22,9.60
2013,04,15,11,23,9.70
2013,04,15,11,24,9.70
2013,04,15,11,25,9.70
2013,04,15,11,26,9.80
2013,04,15,11,27,9.80
2013,04,15,11,28,9.90
2013,04,15,11,29,9.90
2013,04,15,11,30,9.90
2013,04,15,11,31,10.00
2013,04,15,11,32,10.10
2013,04,15,11,33,10.10
2013,04,15,11,34,10.10
2013,04,15,11,35,10.10
2013,04,15,11,36,10.10
2013,04,15,11,37,10.20
2013,04,15,11,38,10.20
2013,04,15,11,39,10.20
2013,04,15,11,40,10.20
2013,04,15,11,41,10.20
2013,04,15,11,42,10.20
2013,04,15,11,43,10.20
2013,04,15,11,44,10.20
2013,04,15,11,45,10.20
2013,04,15,11,46,10.20
2013,04,15,11,47,10.30
2013,04,15,11,48,10.30
2013,04,15,11,49,10.20
2013,04,15,11,50,10.20
2013,04,15,11,51,10.20
2013,04,15,11,52,10.20
2013,04,15,11,53,10.30
2013,04,15,11,54,10.40
2013,04,15,11,55,10.40
2013,04,15,11,56,10.40
2013,04,15,11,57,10.40
2013,04,15,11,58,10.50
2013,04,15,11,59,10.60
2013,04,15,12,00,10.70
2013,04,15,12,01,10.80
2013,04,15,12,02,10.80
2013,04,15,12,03,10.80
2013,04,15,12,04,10.90
2013,04,15,12,05,10.80
2013,04,15,12,06,10.80
2013,04,15,12,07,10.80
2013,04,15,12,08,10.70
2013,04,15,12,09,10.60
2013,04,15,12,10,10.60
2013,04,15,12,11,10.60
2013,04,15,12,12,10.60
2013,04,15,12,13,10.60
2013,04,15,12,14,10.70
2013,04,15,12,15,10.70
2013,04,15,12,16,10.80
2013,04,15,12,17,10.80
2013,04,15,12,18,10.80
2013,04,15,12,19,10.80
2013,04,15,12,20,10.80
2013,04,15,12,21,10.80
2013,04,15,12,22,10.80
2013,04,15,12,23,10.90
2013,04,15,12,24,10.90
2013,04,15,12,25,10.90
2013,04,15,12,26,10.80
2013,04,15,12,27,10.80
2013,04,15,12,28,10.70
2013,04,15,12,29,10.70
2013,04,15,12,30,10.70
2013,04,15,12,31,10.70
2013,04,15,12,32,10.70
2013,04,15,12,33,10.70
2013,04,15,12,34,10.80
2013,04,15,12,35,10.80
2013,04,15,12,36,10.80
2013,04,15,12,37,10.90
2013,04,15,12,38,11.00
2013,04,15,12,39,11.00
2013,04,15,12,40,11.10
2013,04,15,12,41,11.00
2013,04,15,12,42,11.00
2013,04,15,12,43,11.00
2013,04,15,12,44,11.00
2013,04,15,12,45,11.00
2013,04,15,12,46,11.10
2013,04,15,12,47,11.10
2013,04,15,12,48,11.10
2013,04,15,12,49,11.10
2013,04,15,12,50,11.10
2013,04,15,12,51,11.10
2013,04,15,12,52,11.10
2013,04,15,12,53,11.10
2013,04,15,12,54,11.10
2013,04,15,12,55,11.10
2013,04,15,12,56,11.10
2013,04,15,12,57,11.20
2013,04,15,12,58,11.20
2013,04,15,12,59,11.30
2013,04,15,13,00,11.30
2013,04,15,13,01,11.30
2013,04,15,13,02,11.30
2013,04,15,13,03,11.30
2013,04,15,13,04,11.20
2013,04,15,13,05,11.20
2013,04,15,13,06,11.20
2013,04,15,13,07,11.20
2013,04,15,13,08,11.20
2013,04,15,13,09,11.30
2013,04,15,13,10,11.30
2013,04,15,13,11,11.30
2013,04,15,13,12,11.30
2013,04,15,13,13,11.40
2013,04,15,13,14,11.50
2013,04,15,13,15,11.50
2013,04,15,13,16,11.60
2013,04,15,13,17,11.50
2013,04,15,13,18,11.50
2013,04,15,13,19,11.60
2013,04,15,13,20,11.60
2013,04,15,13,21,11.60
2013,04,15,13,22,11.60
2013,04,15,13,23,11.70
2013,04,15,13,24,11.70
2013,04,15,13,25,11.80
2013,04,15,13,26,11.80
2013,04,15,13,27,11.90
2013,04,15,13,28,11.90
2013,04,15,13,29,11.90
2013,04,15,13,30,11.80
2013,04,15,13,31,11.90
2013,04,15,13,32,11.90
2013,04,15,13,33,12.00
2013,04,15,13,34,12.00
2013,04,15,13,35,12.10
2013,04,15,13,36,12.10
2013,04,15,13,37,12.20
2013,04,15,13,38,12.20
2013,04,15,13,39,12.30
2013,04,15,13,40,12.40
2013,04,15,13,41,12.40
2013,04,15,13,42,12.50
2013,04,15,13,43,12.50
2013,04,15,13,44,12.60
2013,04,15,13,45,12.70
2013,04,15,13,46,12.70
2013,04,15,13,47,12.70
2013,04,15,13,48,12.70
2013,04,15,13,49,12.60
2013,04,15,13,50,12.60
2013,04,15,13,51,12.70
2013,04,15,13,52,12.80
2013,04,15,13,53,12.80
2013,04,15,13,54,12.90
2013,04,15,13,55,12.90
2013,04,15,13,56,13.00
2013,04,15,13,57,13.10
2013,04,15,13,58,13.00
2013,04,15,13,59,13.10
2013,04,15,14,00,13.10
2013,04,15,14,01,13.10
2013,04,15,14,02,13.10
2013,04,15,14,03,13.10
2013,04,15,14,04,13.10
2013,04,15,14,05,13.10
2013,04,15,14,06,13.00
2013,04,15,14,07,12.90
2013,04,15,14,08,12.90
2013,04,15,14,09,12.90
2013,04,15,14,10,12.80
2013,04,15,14,11,12.80
2013,04,15,14,12,12.80
2013,04,15,14,13,12.90
2013,04,15,14,14,13.00
2013,04,15,14,15,13.00
2013,04,15,14,16,13.10
2013,04,15,14,17,13.20
2013,04,15,14,18,13.10
2013,04,15,14,19,13.00
2013,04,15,14,20,13.00
2013,04,15,14,21,13.00
2013,04,15,14,22,13.10
2013,04,15,14,23,13.10
2013,04,15,14,24,13.30
2013,04,15,14,25,13.30
2013,04,15,14,26,13.40
2013,04,15,14,27,13.50
2013,04,15,14,28,13.60
2013,04,15,14,29,13.70
2013,04,15,14,30,13.70
2013,04,15,14,31,13.70
2013,04,15,14,32,13.70
2013,04,15,14,33,13.70
2013,04,15,14,34,13.70
2013,04,15,14,35,13.70
2013,04,15,14,36,13.70
2013,04,15,14,37,13.70
2013,04,15,14,38,13.70
2013,04,15,14,39,13.70
2013,04,15,14,40,13.70
2013,04,15,14,41,13.70
2013,04,15,14,42,13.70
2013,04,15,14,43,13.70
2013,04,15,14,44,13.70
2013,04,15,14,45,13.80
2013,04,15,14,46,13.90
2013,04,15,14,47,13.90
2013,04,15,14,48,13.90
2013,04,15,14,49,13.90
2013,04,15,14,50,13.90
2013,04,15,14,51,13.80
2013,04,15,14,52,13.80
2013,04,15,14,53,13.90
2013,04,15,14,54,14.00
2013,04,15,14,55,14.10
2013,04,15,14,56,14.20
2013,04,15,14,57,14.20
2013,04,15,14,58,14.30
2013,04,15,14,59,14.40
2013,04,15,15,00,14.60
2013,04,15,15,01,14.70
2013,04,15,15,02,14.70
2013,04,15,15,03,14.80
2013,04,15,15,04,14.80
2013,04,15,15,05,14.60
2013,04,15,15,06,14.60
2013,04,15,15,07,14.50
2013,04,15,15,08,14.40
2013,04,15,15,09,14.50
2013,04,15,15,10,14.50
2013,04,15,15,11,14.50
2013,04,15,15,12,14.50
2013,04,15,15,13,14.60
2013,04,15,15,14,14.60
2013,04,15,15,15,14.60
2013,04,15,15,16,14.60
2013,04,15,15,17,14.60
2013,04,15,15,18,14.60
2013,04,15,15,19,14.70
2013,04,15,15,20,14.70
2013,04,15,15,21,14.80
2013,04,15,15,22,14.80
2013,04,15,15,23,14.70
2013,04,15,15,24,14.70
2013,04,15,15,25,14.60
2013,04,15,15,26,14.60
2013,04,15,15,27,14.60
2013,04,15,15,28,14.60
2013,04,15,15,29,14.60
2013,04,15,15,30,14.60
2013,04,15,15,31,14.60
2013,04,15,15,32,14.60
2013,04,15,15,33,14.60
2013,04,15,15,34,14.70
2013,04,15,15,35,14.70
2013,04,15,15,36,14.80
2013,04,15,15,37,14.90
2013,04,15,15,38,15.00
2013,04,15,15,39,15.00
2013,04,15,15,40,15.00
2013,04,15,15,41,15.00
2013,04,15,15,42,15.00
2013,04,15,15,43,15.00
2013,04,15,15,44,15.00
2013,04,15,15,45,15.00
2013,04,15,15,46,15.00
2013,04,15,15,47,15.00
2013,04,15,15,48,15.00
2013,04,15,15,49,15.00
2013,04,15,15,50,15.10
2013,04,15,15,51,15.10
2013,04,15,15,52,15.10
2013,04,15,15,53,15.10
2013,04,15,15,54,15.00
2013,04,15,15,55,15.00
2013,04,15,15,56,15.00
2013,04,15,15,57,15.00
2013,04,15,15,58,15.00
2013,04,15,15,59,15.00
2013,04,15,16,00,15.00
2013,04,15,16,01,15.00
2013,04,15,16,02,15.10
2013,04,15,16,03,15.20
2013,04,15,16,04,15.30
2013,04,15,16,05,15.20
2013,04,15,16,06,15.20
2013,04,15,16,07,15.10
2013,04,15,16,08,15.00
2013,04,15,16,09,15.00
2013,04,15,16,10,15.00
2013,04,15,16,11,15.10
2013,04,15,16,12,15.20
2013,04,15,16,13,15.30
2013,04,15,16,14,15.30
2013,04,15,16,15,15.40
2013,04,15,16,16,15.40
2013,04,15,16,17,15.40
2013,04,15,16,18,15.30
2013,04,15,16,19,15.30
2013,04,15,16,20,15.20
2013,04,15,16,21,15.20
2013,04,15,16,22,15.10
2013,04,15,16,23,15.10
2013,04,15,16,24,15.20
2013,04,15,16,25,15.20
2013,04,15,16,26,15.20
2013,04,15,16,27,15.20
2013,04,15,16,28,15.10
2013,04,15,16,29,15.10
2013,04,15,16,30,15.10
2013,04,15,16,31,15.20
2013,04,15,16,32,15.20
2013,04,15,16,33,15.20
2013,04,15,16,34,15.20
2013,04,15,16,35,15.30
2013,04,15,16,36,15.30
2013,04,15,16,37,15.40
2013,04,15,16,38,15.30
2013,04,15,16,39,15.30
2013,04,15,16,40,15.20
2013,04,15,16,41,15.10
2013,04,15,16,42,15.10
2013,04,15,16,43,15.10
2013,04,15,16,44,15.10
2013,04,15,16,45,15.10
2013,04,15,16,46,15.10
2013,04,15,16,47,15.00
2013,04,15,16,48,15.00
2013,04,15,16,49,15.10
2013,04,15,16,50,15.20
2013,04,15,16,51,15.30
2013,04,15,16,52,15.30
2013,04,15,16,53,15.20
2013,04,15,16,54,15.30
2013,04,15,16,55,15.30
2013,04,15,16,56,15.30
2013,04,15,16,57,15.30
2013,04,15,16,58,15.20
2013,04,15,16,59,15.10
2013,04,15,17,00,15.10
2013,04,15,17,01,15.20
2013,04,15,17,02,15.20
2013,04,15,17,03,15.30
2013,04,15,17,04,15.30
2013,04,15,17,05,15.30
2013,04,15,17,06,15.30
2013,04,15,17,07,15.30
2013,04,15,17,08,15.30
2013,04,15,17,09,15.20
2013,04,15,17,10,15.10
2013,04,15,17,11,15.20
2013,04,15,17,12,15.30
2013,04,15,17,13,15.30
2013,04,15,17,14,15.50
2013,04,15,17,15,15.50
2013,04,15,17,16,15.60
2013,04,15,17,17,15.60
2013,04,15,17,18,15.60
2013,04,15,17,19,15.60
2013,04,15,17,20,15.50
2013,04,15,17,21,15.50
2013,04,15,17,22,15.50
2013,04,15,17,23,15.50
2013,04,15,17,24,15.40
2013,04,15,17,25,15.30
2013,04,15,17,26,15.30
2013,04,15,17,27,15.30
2013,04,15,17,28,15.30
2013,04,15,17,29,15.30
2013,04,15,17,30,15.40
2013,04,15,17,31,15.40
2013,04,15,17,32,15.50
2013,04,15,17,33,15.50
2013,04,15,17,34,15.60
2013,04,15,17,35,15.60
2013,04,15,17,36,15.70
2013,04,15,17,37,15.70
2013,04,15,17,38,15.80
2013,04,15,17,39,15.80
2013,04,15,17,40,15.70
2013,04,15,17,41,15.70
2013,04,15,17,42,15.60
2013,04,15,17,43,15.60
2013,04,15,17,44,15.60
2013,04,15,17,45,15.70
2013,04,15,17,46,15.70
2013,04,15,17,47,15.70
2013,04,15,17,48,15.70
2013,04,15,17,49,15.70